EWG4FR EDDK-EDDH

Flight info

Callsign EWG4FR
Flight time 0h 50m
Altitude 23000
Route PODIP2Q PODIP Y867 PELUN DCT ANZIV DCT WRB Y867 TOLGI DCT SAS P605 NOLGO NOLGO3P
Aircraft A320/M-SDE3FGHIRWY/LB1

Departure

Time 2026-05-04 21:28
Airport Cologne Bonn Airport (EDDK)

Arrival

Time 2026-05-04 22:18
Airport Hamburg Helmut Schmidt Airport (EDDH)
Time Latitude Longitude Altitude Speed Heading
2026-05-04 21:11 50.87834 7.12452 232 ft 0 kts 288°
2026-05-04 21:21 50.87833 7.12456 232 ft 3 kts 288°
2026-05-04 21:21 50.87826 7.12496 232 ft 4 kts 289°
2026-05-04 21:22 50.87815 7.12534 232 ft 4 kts 307°
2026-05-04 21:22 50.87796 7.12560 234 ft 4 kts 352°
2026-05-04 21:22 50.87786 7.12560 232 ft 0 kts 18°
2026-05-04 21:25 50.87853 7.12594 232 ft 16 kts 17°
2026-05-04 21:25 50.87921 7.12631 235 ft 11 kts 24°
2026-05-04 21:25 50.87980 7.12707 234 ft 9 kts 47°
2026-05-04 21:26 50.87998 7.12762 236 ft 0 kts 71°
2026-05-04 21:26 50.88001 7.12779 237 ft 9 kts 72°
2026-05-04 21:27 50.88010 7.12897 239 ft 11 kts 94°
2026-05-04 21:27 50.87953 7.13046 239 ft 26 kts 136°
2026-05-04 21:27 50.87650 7.13487 239 ft 94 kts 137°
2026-05-04 21:27 50.87025 7.14395 257 ft 147 kts 137°
2026-05-04 21:28 50.86226 7.15564 686 ft 159 kts 137°
2026-05-04 21:28 50.85401 7.16776 1256 ft 172 kts 136°
2026-05-04 21:28 50.84466 7.18135 1593 ft 194 kts 138°
2026-05-04 21:28 50.83405 7.19620 2092 ft 208 kts 138°
2026-05-04 21:29 50.82323 7.21172 2874 ft 211 kts 131°
2026-05-04 21:29 50.81580 7.23174 3632 ft 215 kts 107°
2026-05-04 21:29 50.81313 7.25539 4249 ft 228 kts 99°
2026-05-04 21:29 50.81088 7.28154 4633 ft 252 kts 99°
2026-05-04 21:30 50.80844 7.31018 5156 ft 270 kts 98°
2026-05-04 21:30 50.80590 7.34004 5944 ft 277 kts 99°
2026-05-04 21:30 50.80329 7.37050 6809 ft 282 kts 99°
2026-05-04 21:30 50.80065 7.40095 7647 ft 286 kts 99°
2026-05-04 21:31 50.79507 7.46404 9281 ft 294 kts 100°
2026-05-04 21:31 50.79220 7.49628 10085 ft 298 kts 100°
2026-05-04 21:31 50.78967 7.52973 10497 ft 319 kts 94°
2026-05-04 21:32 50.79153 7.56587 10854 ft 340 kts 79°
2026-05-04 21:32 50.79943 7.60154 11507 ft 349 kts 64°
2026-05-04 21:32 50.81268 7.63328 12241 ft 353 kts 50°
2026-05-04 21:32 50.83044 7.66033 12968 ft 357 kts 42°
2026-05-04 21:33 50.84905 7.68665 13655 ft 361 kts 42°
2026-05-04 21:33 50.86792 7.71327 14307 ft 365 kts 42°
2026-05-04 21:33 50.88664 7.73968 14929 ft 369 kts 42°
2026-05-04 21:33 50.90593 7.76693 15537 ft 374 kts 42°
2026-05-04 21:34 50.92537 7.79451 16141 ft 378 kts 43°
2026-05-04 21:34 50.94349 7.82493 16738 ft 381 kts 53°
2026-05-04 21:34 50.95808 7.86015 17298 ft 384 kts 61°
2026-05-04 21:34 50.97143 7.89650 17862 ft 388 kts 61°
2026-05-04 21:35 50.98510 7.93366 18418 ft 392 kts 61°
2026-05-04 21:35 50.99890 7.97111 18952 ft 396 kts 61°
2026-05-04 21:35 51.01286 8.00900 19480 ft 399 kts 61°
2026-05-04 21:35 51.02699 8.04732 19994 ft 404 kts 61°
2026-05-04 21:36 51.04123 8.08588 20499 ft 407 kts 61°
2026-05-04 21:36 51.05561 8.12490 21008 ft 410 kts 61°
2026-05-04 21:36 51.07006 8.16418 21500 ft 413 kts 61°
2026-05-04 21:36 51.08457 8.20376 21965 ft 416 kts 61°
2026-05-04 21:37 51.09899 8.24317 22413 ft 419 kts 61°
2026-05-04 21:37 51.11367 8.28339 22839 ft 422 kts 61°
2026-05-04 21:37 51.12840 8.32398 22973 ft 421 kts 61°
2026-05-04 21:37 51.14275 8.36372 22999 ft 410 kts 62°
2026-05-04 21:38 51.15691 8.40297 22999 ft 407 kts 62°
2026-05-04 21:38 51.17097 8.44205 22999 ft 407 kts 62°
2026-05-04 21:38 51.18504 8.48110 23000 ft 403 kts 62°
2026-05-04 21:38 51.19890 8.51866 22994 ft 385 kts 58°
2026-05-04 21:39 51.21462 8.55155 22995 ft 372 kts 50°
2026-05-04 21:39 51.23190 8.58429 23000 ft 391 kts 51°
2026-05-04 21:39 51.24945 8.61781 23000 ft 403 kts 51°
2026-05-04 21:39 51.26747 8.65235 22999 ft 406 kts 51°
2026-05-04 21:40 51.28556 8.68707 22999 ft 407 kts 51°
2026-05-04 21:40 51.30369 8.72188 22998 ft 407 kts 51°
2026-05-04 21:40 51.32186 8.75665 22999 ft 407 kts 51°
2026-05-04 21:40 51.34000 8.79137 22999 ft 407 kts 51°
2026-05-04 21:41 51.35813 8.82620 22999 ft 407 kts 51°
2026-05-04 21:41 51.37624 8.86110 22998 ft 407 kts 51°
2026-05-04 21:41 51.39412 8.89558 22999 ft 407 kts 51°
2026-05-04 21:41 51.41226 8.93047 22999 ft 407 kts 51°
2026-05-04 21:42 51.43039 8.96530 22998 ft 408 kts 51°
2026-05-04 21:42 51.44855 9.00017 22998 ft 408 kts 51°
2026-05-04 21:42 51.46666 9.03511 22998 ft 407 kts 51°
2026-05-04 21:42 51.48477 9.07017 22998 ft 408 kts 51°
2026-05-04 21:43 51.50318 9.10478 22998 ft 408 kts 46°
2026-05-04 21:43 51.52428 9.13506 23000 ft 408 kts 38°
2026-05-04 21:43 51.54613 9.16323 22999 ft 408 kts 38°
2026-05-04 21:43 51.56822 9.19171 22999 ft 407 kts 38°
2026-05-04 21:44 51.59029 9.22027 22997 ft 407 kts 38°
2026-05-04 21:44 51.61236 9.24890 22996 ft 407 kts 38°
2026-05-04 21:44 51.63440 9.27756 22996 ft 407 kts 38°
2026-05-04 21:44 51.65641 9.30627 22995 ft 407 kts 39°
2026-05-04 21:45 51.67840 9.33498 22993 ft 407 kts 38°
2026-05-04 21:45 51.70037 9.36366 22994 ft 407 kts 38°
2026-05-04 21:45 51.72233 9.39234 22992 ft 407 kts 38°
2026-05-04 21:45 51.74429 9.42108 22990 ft 407 kts 38°
2026-05-04 21:46 51.76599 9.44953 22988 ft 407 kts 38°
2026-05-04 21:46 51.78795 9.47838 22987 ft 407 kts 38°
2026-05-04 21:46 51.80988 9.50721 22987 ft 407 kts 38°
2026-05-04 21:46 51.83252 9.53444 22985 ft 406 kts 31°
2026-05-04 21:47 51.85726 9.55606 22985 ft 405 kts 25°
2026-05-04 21:47 51.88241 9.57675 22985 ft 405 kts 25°
2026-05-04 21:47 51.90751 9.59745 22985 ft 405 kts 25°
2026-05-04 21:47 51.93260 9.61815 22984 ft 405 kts 25°
2026-05-04 21:48 51.95729 9.63860 22983 ft 405 kts 25°
2026-05-04 21:48 51.98235 9.65944 22980 ft 404 kts 26°
2026-05-04 21:48 52.00741 9.68034 22977 ft 404 kts 26°
2026-05-04 21:48 52.03243 9.70124 22976 ft 404 kts 25°
2026-05-04 21:49 52.05743 9.72214 22977 ft 404 kts 26°
2026-05-04 21:49 52.08233 9.74294 22978 ft 404 kts 25°
2026-05-04 21:49 52.10643 9.76310 22964 ft 362 kts 25°
2026-05-04 21:49 52.12753 9.78080 23015 ft 322 kts 25°
2026-05-04 21:50 52.14660 9.79667 23045 ft 296 kts 25°
2026-05-04 21:50 52.16438 9.81112 22961 ft 276 kts 24°
2026-05-04 21:50 52.18098 9.82413 22733 ft 259 kts 22°
2026-05-04 21:50 52.19686 9.83578 22259 ft 244 kts 20°
2026-05-04 21:51 52.21348 9.84754 20523 ft 264 kts 23°
2026-05-04 21:51 52.23251 9.86491 17600 ft 354 kts 31°
2026-05-04 21:51 52.25282 9.88489 17109 ft 329 kts 30°
2026-05-04 21:51 52.27205 9.90299 16413 ft 314 kts 29°
2026-05-04 21:52 52.29115 9.92019 15355 ft 313 kts 27°
2026-05-04 21:52 52.31049 9.93631 14311 ft 311 kts 25°
2026-05-04 21:52 52.32978 9.95078 13387 ft 305 kts 23°
2026-05-04 21:52 52.34839 9.96242 13435 ft 278 kts 20°
2026-05-04 21:53 52.36808 9.97175 13547 ft 315 kts 12°
2026-05-04 21:53 52.39118 9.97935 13246 ft 360 kts
2026-05-04 21:53 52.41601 9.98125 13719 ft 344 kts 353°
2026-05-04 21:53 52.43894 9.97861 14568 ft 317 kts 354°
2026-05-04 21:54 52.46015 9.97684 15281 ft 294 kts 354°
2026-05-04 21:54 52.47975 9.97452 15903 ft 271 kts 351°
2026-05-04 21:54 52.49760 9.97188 16399 ft 254 kts
2026-05-04 21:54 52.51495 9.97619 16483 ft 255 kts 12°
2026-05-04 21:55 52.53218 9.98450 16409 ft 262 kts 17°
2026-05-04 21:55 52.54960 9.99474 16390 ft 273 kts 18°
2026-05-04 21:55 52.56801 10.00523 16464 ft 287 kts 15°
2026-05-04 21:55 52.58768 10.01385 16585 ft 298 kts
2026-05-04 21:56 52.60854 10.01855 16755 ft 307 kts
2026-05-04 21:56 52.63007 10.02313 16943 ft 318 kts
2026-05-04 21:56 52.65198 10.03064 17164 ft 326 kts 10°
2026-05-04 21:56 52.67419 10.03807 17407 ft 333 kts
2026-05-04 21:57 52.69712 10.04507 17674 ft 338 kts
2026-05-04 21:57 52.72033 10.05318 17959 ft 343 kts 12°
2026-05-04 21:57 52.74369 10.06248 18261 ft 347 kts 10°
2026-05-04 21:57 52.76731 10.07099 18603 ft 348 kts 11°
2026-05-04 21:58 52.79083 10.08065 18988 ft 349 kts 11°
2026-05-04 21:58 52.81450 10.08989 19287 ft 352 kts
2026-05-04 21:58 52.83908 10.09795 18705 ft 364 kts
2026-05-04 21:58 52.86431 10.10412 18127 ft 369 kts
2026-05-04 21:59 52.88994 10.10835 17520 ft 372 kts
2026-05-04 21:59 52.91555 10.11199 16789 ft 373 kts
2026-05-04 21:59 52.94098 10.11671 16154 ft 364 kts
2026-05-04 21:59 52.96598 10.12174 15244 ft 363 kts
2026-05-04 22:00 52.99117 10.12644 14226 ft 364 kts
2026-05-04 22:00 53.01589 10.13391 13670 ft 354 kts 20°
2026-05-04 22:00 53.03694 10.15146 13787 ft 324 kts 25°
2026-05-04 22:00 53.05644 10.16643 13890 ft 293 kts 12°
2026-05-04 22:01 53.07581 10.16979 13750 ft 278 kts 351°
2026-05-04 22:01 53.09586 10.16658 13511 ft 308 kts 351°
2026-05-04 22:01 53.11768 10.16353 13264 ft 319 kts 352°
2026-05-04 22:01 53.13990 10.16098 13007 ft 319 kts 353°
2026-05-04 22:02 53.16203 10.15873 12755 ft 319 kts 353°
2026-05-04 22:02 53.18413 10.15654 12506 ft 317 kts 353°
2026-05-04 22:02 53.20613 10.15435 12263 ft 316 kts 353°
2026-05-04 22:02 53.22801 10.15217 12008 ft 314 kts 353°
2026-05-04 22:03 53.24949 10.15003 11761 ft 313 kts 353°
2026-05-04 22:03 53.27123 10.14781 11506 ft 312 kts 353°
2026-05-04 22:03 53.29291 10.14552 11008 ft 310 kts 353°
2026-05-04 22:03 53.31416 10.14327 10507 ft 302 kts 352°
2026-05-04 22:04 53.33489 10.14110 10009 ft 295 kts 352°
2026-05-04 22:04 53.35514 10.13899 9499 ft 289 kts 352°
2026-05-04 22:04 53.37520 10.13687 9007 ft 291 kts 352°
2026-05-04 22:04 53.39551 10.13465 8543 ft 292 kts 352°
2026-05-04 22:05 53.41543 10.13249 8154 ft 290 kts 352°
2026-05-04 22:05 53.43550 10.13034 7754 ft 288 kts 352°
2026-05-04 22:05 53.45546 10.12822 7348 ft 284 kts 352°
2026-05-04 22:05 53.47481 10.12621 6860 ft 275 kts 352°
2026-05-04 22:06 53.49367 10.12421 6335 ft 269 kts 352°
2026-05-04 22:06 53.51221 10.12222 5826 ft 264 kts 352°
2026-05-04 22:06 53.53046 10.12026 5444 ft 262 kts 353°
2026-05-04 22:06 53.54856 10.11834 5068 ft 260 kts 354°
2026-05-04 22:07 53.56661 10.12045 4690 ft 261 kts
2026-05-04 22:07 53.58352 10.13018 4318 ft 261 kts 25°
2026-05-04 22:07 53.59862 10.14715 4026 ft 259 kts 40°
2026-05-04 22:07 53.61045 10.16879 3996 ft 243 kts 49°
2026-05-04 22:08 53.62107 10.19021 4000 ft 236 kts 49°
2026-05-04 22:08 53.63160 10.21133 4009 ft 235 kts 49°
2026-05-04 22:08 53.64211 10.23242 4007 ft 235 kts 49°
2026-05-04 22:08 53.65265 10.25360 4007 ft 236 kts 49°
2026-05-04 22:09 53.66319 10.27486 3999 ft 237 kts 49°
2026-05-04 22:09 53.67363 10.29593 4010 ft 237 kts 49°
2026-05-04 22:09 53.68421 10.31729 4005 ft 237 kts 49°
2026-05-04 22:09 53.69479 10.33864 4001 ft 237 kts 49°
2026-05-04 22:10 53.70534 10.35996 4005 ft 235 kts 49°
2026-05-04 22:10 53.71556 10.38068 4006 ft 227 kts 49°
2026-05-04 22:10 53.72571 10.40106 3988 ft 226 kts 45°
2026-05-04 22:10 53.73843 10.41575 3870 ft 221 kts 17°
2026-05-04 22:11 53.75341 10.41876 3745 ft 217 kts 349°
2026-05-04 22:11 53.76745 10.41036 3622 ft 215 kts 328°
2026-05-04 22:11 53.77888 10.39490 3501 ft 214 kts 311°
2026-05-04 22:11 53.78693 10.37391 3377 ft 214 kts 293°
2026-05-04 22:12 53.79060 10.34969 3247 ft 214 kts 275°
2026-05-04 22:12 53.78951 10.32498 3124 ft 210 kts 256°
2026-05-04 22:12 53.78384 10.30215 3034 ft 212 kts 238°
2026-05-04 22:12 53.77468 10.28251 3000 ft 213 kts 231°
2026-05-04 22:13 53.76540 10.26348 3012 ft 202 kts 231°
2026-05-04 22:13 53.75698 10.24623 3028 ft 182 kts 232°
2026-05-04 22:13 53.74952 10.23095 3007 ft 159 kts 232°
2026-05-04 22:13 53.74273 10.21704 3000 ft 150 kts 232°
2026-05-04 22:14 53.73615 10.20358 2979 ft 148 kts 232°
2026-05-04 22:14 53.72962 10.19025 2853 ft 146 kts 232°
2026-05-04 22:14 53.72317 10.17706 2691 ft 145 kts 232°
2026-05-04 22:14 53.71675 10.16394 2507 ft 145 kts 232°
2026-05-04 22:15 53.71034 10.15087 2326 ft 144 kts 232°
2026-05-04 22:15 53.70406 10.13806 2139 ft 144 kts 232°
2026-05-04 22:15 53.69770 10.12511 1950 ft 143 kts 232°
2026-05-04 22:15 53.69137 10.11220 1761 ft 143 kts 232°
2026-05-04 22:16 53.68505 10.09934 1571 ft 142 kts 232°
2026-05-04 22:16 53.67876 10.08654 1380 ft 142 kts 232°
2026-05-04 22:16 53.67248 10.07376 1194 ft 141 kts 232°
2026-05-04 22:16 53.66624 10.06107 1008 ft 141 kts 232°
2026-05-04 22:17 53.66000 10.04839 822 ft 140 kts 232°
2026-05-04 22:17 53.65379 10.03578 638 ft 140 kts 232°
2026-05-04 22:17 53.64767 10.02337 453 ft 139 kts 232°
2026-05-04 22:17 53.64151 10.01086 270 ft 139 kts 232°
2026-05-04 22:18 53.63535 9.99838 86 ft 138 kts 231°
2026-05-04 22:18 53.62977 9.98704 51 ft 96 kts 230°
2026-05-04 22:18 53.62779 9.98351 50 ft 14 kts 185°
2026-05-04 22:18 53.62701 9.98410 52 ft 9 kts 140°
2026-05-04 22:19 53.62673 9.98490 51 ft 7 kts 90°
2026-05-04 22:19 53.62693 9.98561 51 ft 6 kts 55°
2026-05-04 22:19 53.62716 9.98611 49 ft 5 kts 51°
2026-05-04 22:19 53.62741 9.98661 48 ft 10 kts 49°
2026-05-04 22:20 53.62807 9.98797 49 ft 16 kts 51°
2026-05-04 22:20 53.62862 9.98904 51 ft 11 kts 49°
2026-05-04 22:20 53.62910 9.98999 50 ft 10 kts 50°
2026-05-04 22:20 53.62951 9.99082 50 ft 8 kts 51°
2026-05-04 22:21 53.62985 9.99152 48 ft 7 kts 51°
2026-05-04 22:21 53.63022 9.99230 49 ft 14 kts 51°
2026-05-04 22:21 53.63082 9.99367 50 ft 10 kts 55°
2026-05-04 22:21 53.63116 9.99448 49 ft 7 kts 54°
2026-05-04 22:22 53.63162 9.99553 48 ft 15 kts 51°
2026-05-04 22:22 53.63221 9.99701 51 ft 18 kts 82°
2026-05-04 22:22 53.63131 9.99832 50 ft 19 kts 153°
2026-05-04 22:22 53.63023 9.99934 51 ft 17 kts 150°
2026-05-04 22:23 53.62955 10.00008 50 ft 13 kts 124°
2026-05-04 22:23 53.62968 10.00117 48 ft 9 kts 43°
2026-05-04 22:23 53.62977 10.00193 49 ft 9 kts 122°
2026-05-04 22:23 53.62955 10.00249 51 ft 5 kts 123°
2026-05-04 22:24 53.62947 10.00270 51 ft 0 kts 122°